QPF
0.02 0.02 0.02 0.02 0.03 0.02 0.03 0.02 0.02 0.02 0.02 0.02 0.03 0.04 0.04 0.03 0.03 0.03 0.02 0.03 0.03 0.03 0.03 0.03 0.02 0.03 0.03 0.03 0.03 0.04 0.05 0.06 0.06 0.06 0.06 0.07 0.07 0.07 0.09 0.08 0.09 0.10 0.08
0.03 0.04 0.03 0.05 0.06 0.05 0.04 0.03 0.03 0.02 0.02 0.03 0.03 0.03 0.03 0.03 0.03 0.02 0.02 0.03 0.04 0.04 0.04 0.04 0.03 0.04 0.04 0.04 0.04 0.04 0.04 0.05 0.05 0.05 0.06 0.07 0.06 0.06 0.06 0.07 0.07 0.05 0.06
0.09 0.06 0.06 0.05 0.06 0.05 0.04 0.03 0.03 0.03 0.03 0.03 0.02 0.03 0.03 0.03 0.02 0.01 0.02 0.02 0.03 0.03 0.04 0.05 0.05 0.05 0.05 0.05 0.05 0.04 0.04 0.04 0.05 0.04 0.04 0.05 0.05 0.04 0.05 0.04 0.04 0.07 0.05
0.06 0.06 0.06 0.05 0.05 0.04 0.04 0.04 0.04 0.05 0.04 0.04 0.04 0.03 0.02 0.02 0.01 0.01 0.02 0.02 0.02 0.02 0.02 0.03 0.03 0.03 0.04 0.05 0.05 0.06 0.06 0.06 0.06 0.05 0.04 0.04 0.04 0.05 0.05 0.04 0.03 0.04 0.05
0.04 0.04 0.04 0.04 0.04 0.04 0.04 0.05 0.06 0.06 0.04 0.05 0.04 0.02 0.01 0.01 0.00 0.01 0.01 0.02 0.02 0.02 0.01 0.01 0.01 0.01 0.01 0.02 0.02 0.03 0.04 0.04 0.05 0.05 0.05 0.05 0.05 0.07 0.05 0.05 0.05 0.05 0.05
0.03 0.03 0.04 0.05 0.05 0.05 0.05 0.06 0.07 0.07 0.06 0.06 0.04 0.02 0.01 0.00 0.01 0.01 0.01 0.02 0.03 0.02 0.02 0.02 0.01 0.01 0.01 0.01 0.01 0.01 0.01 0.03 0.04 0.05 0.06 0.07 0.08 0.09 0.08 0.07 0.07 0.07 0.06
0.02 0.03 0.05 0.06 0.06 0.07 0.07 0.06 0.06 0.06 0.05 0.04 0.03 0.02 0.02 0.03 0.03 0.02 0.01 0.02 0.03 0.03 0.03 0.03 0.01 0.01 0.01 0.01 0.01 0.01 0.01 0.02 0.02 0.02 0.03 0.04 0.05 0.06 0.07 0.07 0.07 0.08 0.09
0.04 0.05 0.06 0.07 0.08 0.08 0.08 0.07 0.07 0.06 0.05 0.05 0.04 0.03 0.03 0.03 0.04 0.02 0.01 0.01 0.02 0.03 0.03 0.03 0.02 0.02 0.02 0.02 0.02 0.02 0.02 0.02 0.02 0.02 0.02 0.03 0.03 0.05 0.05 0.05 0.07 0.08 0.09
0.04 0.05 0.06 0.08 0.08 0.07 0.05 0.05 0.05 0.04 0.03 0.03 0.03 0.03 0.03 0.03 0.04 0.02 0.02 0.01 0.01 0.03 0.03 0.03 0.03 0.02 0.02 0.03 0.02 0.02 0.03 0.03 0.02 0.03 0.03 0.02 0.02 0.02 0.03 0.04 0.05 0.06 0.06
0.05 0.04 0.04 0.04 0.04 0.03 0.03 0.03 0.03 0.03 0.04 0.03 0.03 0.03 0.03 0.04 0.04 0.02 0.02 0.02 0.02 0.02 0.03 0.03 0.03 0.03 0.04 0.05 0.04 0.04 0.04 0.04 0.04 0.05 0.05 0.04 0.03 0.03 0.04 0.04 0.06 0.06 0.07
0.04 0.03 0.03 0.03 0.02 0.02 0.02 0.02 0.02 0.02 0.02 0.02 0.03 0.03 0.04 0.04 0.04 0.03 0.03 0.03 0.04 0.04 0.04 0.03 0.05 0.06 0.05 0.05 0.05 0.03 0.03 0.05 0.06 0.06 0.07 0.06 0.05 0.04 0.04 0.04 0.05 0.06 0.07
0.02 0.02 0.02 0.02 0.02 0.01 0.02 0.01 0.01 0.02 0.02 0.02 0.02 0.03 0.03 0.04 0.04 0.05 0.05 0.05 0.06 0.06 0.05 0.05 0.06 0.07 0.05 0.06 0.06 0.05 0.04 0.05 0.05 0.06 0.06 0.06 0.06 0.04 0.04 0.04 0.04 0.05 0.07
0.02 0.02 0.03 0.02 0.02 0.02 0.02 0.02 0.02 0.02 0.02 0.02 0.02 0.02 0.02 0.04 0.05 0.07 0.09 0.09 0.10 0.09 0.08 0.08 0.08 0.07 0.06 0.06 0.06 0.06 0.05 0.05 0.04 0.02 0.03 0.03 0.04 0.05 0.05 0.05 0.05 0.06 0.07
0.03 0.03 0.03 0.03 0.02 0.02 0.02 0.02 0.02 0.02 0.02 0.03 0.03 0.03 0.03 0.02 0.02 0.03 0.04 0.05 0.06 0.06 0.05 0.05 0.05 0.04 0.04 0.04 0.05 0.07 0.06 0.05 0.05 0.04 0.03 0.03 0.03 0.04 0.05 0.05 0.05 0.06 0.06
0.03 0.03 0.03 0.03 0.02 0.02 0.03 0.02 0.02 0.03 0.03 0.03 0.02 0.02 0.02 0.02 0.02 0.02 0.02 0.02 0.02 0.02 0.02 0.01 0.01 0.02 0.02 0.03 0.05 0.07 0.05 0.05 0.05 0.04 0.04 0.03 0.03 0.04 0.04 0.04 0.05 0.05 0.04
0.03 0.02 0.02 0.02 0.02 0.02 0.02 0.02 0.01 0.01 0.01 0.02 0.02 0.02 0.01 0.01 0.01 0.01 0.01 0.01 0.01 0.01 0.01 0.01 0.02 0.02 0.03 0.03 0.04 0.04 0.05 0.05 0.04 0.05 0.05 0.05 0.06 0.05 0.04 0.04 0.04 0.04 0.05
0.02 0.02 0.02 0.01 0.01 0.01 0.01 0.02 0.02 0.01 0.01 0.01 0.02 0.02 0.02 0.02 0.01 0.01 0.01 0.01 0.01 0.01 0.01 0.02 0.02 0.03 0.04 0.05 0.06 0.06 0.05 0.05 0.06 0.07 0.06 0.07 0.08 0.07 0.06 0.06 0.05 0.05 0.06
0.02 0.02 0.03 0.02 0.02 0.01 0.01 0.02 0.02 0.01 0.01 0.01 0.01 0.01 0.01 0.02 0.02 0.02 0.02 0.01 0.01 0.01 0.02 0.03 0.04 0.04 0.05 0.05 0.06 0.07 0.07 0.07 0.07 0.07 0.07 0.08 0.10 0.10 0.09 0.07 0.06 0.06 0.06
0.01 0.02 0.03 0.02 0.02 0.01 0.01 0.01 0.01 0.01 0.01 0.01 0.01 0.01 0.01 0.01 0.02 0.02 0.02 0.02 0.02 0.03 0.03 0.04 0.04 0.05 0.06 0.07 0.07 0.08 0.09 0.09 0.09 0.08 0.07 0.07 0.07 0.08 0.09 0.10 0.09 0.08 0.08
0.02 0.02 0.02 0.02 0.02 0.01 0.01 0.01 0.01 0.01 0.00 0.00 0.01 0.01 0.01 0.02 0.02 0.02 0.02 0.03 0.03 0.03 0.03 0.04 0.04 0.05 0.07 0.08 0.08 0.08 0.07 0.08 0.08 0.09 0.08 0.07 0.05 0.05 0.05 0.06 0.08 0.10 0.10
0.01 0.02 0.02 0.02 0.01 0.01 0.01 0.01 0.01 0.01 0.01 0.01 0.01 0.01 0.01 0.02 0.02 0.03 0.03 0.03 0.03 0.04 0.04 0.04 0.04 0.04 0.05 0.05 0.05 0.06 0.07 0.08 0.08 0.08 0.08 0.08 0.07 0.06 0.06 0.06 0.07 0.08 0.09
0.01 0.02 0.01 0.01 0.01 0.01 0.01 0.01 0.01 0.01 0.01 0.01 0.01 0.02 0.02 0.02 0.03 0.03 0.05 0.05 0.05 0.05 0.05 0.04 0.04 0.04 0.04 0.03 0.04 0.04 0.05 0.06 0.07 0.07 0.07 0.07 0.08 0.07 0.08 0.08 0.08 0.09 0.10
0.01 0.02 0.02 0.02 0.01 0.02 0.02 0.03 0.02 0.01 0.01 0.01 0.01 0.01 0.01 0.01 0.03 0.04 0.04 0.05 0.05 0.04 0.04 0.03 0.04 0.04 0.04 0.04 0.04 0.05 0.04 0.03 0.04 0.04 0.05 0.06 0.08 0.08 0.08 0.07 0.07 0.09 0.08
0.01 0.01 0.02 0.01 0.01 0.01 0.01 0.01 0.01 0.01 0.01 0.01 0.01 0.01 0.01 0.01 0.02 0.03 0.04 0.05 0.06 0.05 0.05 0.03 0.03 0.04 0.03 0.02 0.03 0.03 0.03 0.03 0.03 0.03 0.03 0.04 0.05 0.07 0.06 0.05 0.05 0.06 0.07
0.01 0.01 0.01 0.01 0.02 0.02 0.02 0.01 0.01 0.01 0.01 0.01 0.01 0.02 0.02 0.02 0.03 0.04 0.06 0.06 0.06 0.05 0.03 0.03 0.04 0.05 0.03 0.02 0.02 0.02 0.03 0.03 0.03 0.03 0.04 0.04 0.04 0.04 0.05 0.04 0.04 0.05 0.05
0.01 0.01 0.01 0.01 0.01 0.01 0.01 0.01 0.01 0.01 0.01 0.01 0.02 0.02 0.03 0.03 0.04 0.04 0.04 0.04 0.03 0.03 0.03 0.03 0.03 0.04 0.03 0.03 0.03 0.03 0.03 0.03 0.03 0.03 0.04 0.04 0.03 0.03 0.03 0.03 0.02 0.02 0.03
MSLP
1014.13 1014.15 1014.14 1014.10 1013.98 1013.80 1013.58 1013.33 1013.09 1012.88 1012.71 1012.58 1012.49 1012.39 1012.28 1012.11 1011.89 1011.62 1011.32 1011.01 1010.72 1010.49 1010.32 1010.23 1010.19 1010.18 1010.17 1010.13 1010.04 1009.88 1009.66 1009.37 1009.04 1008.69 1008.34 1008.01 1007.71 1007.45 1007.24 1007.08 1006.98 1006.93 1006.96
1014.13 1014.12 1014.11 1014.06 1013.96 1013.81 1013.61 1013.40 1013.20 1013.02 1012.87 1012.75 1012.66 1012.57 1012.47 1012.32 1012.14 1011.92 1011.67 1011.42 1011.19 1011.00 1010.88 1010.80 1010.77 1010.76 1010.74 1010.70 1010.60 1010.43 1010.20 1009.91 1009.58 1009.22 1008.85 1008.49 1008.14 1007.83 1007.56 1007.33 1007.15 1007.03 1006.98
1014.07 1014.06 1014.04 1014.00 1013.91 1013.78 1013.63 1013.46 1013.29 1013.14 1013.02 1012.94 1012.86 1012.80 1012.72 1012.60 1012.46 1012.29 1012.10 1011.90 1011.73 1011.59 1011.49 1011.42 1011.39 1011.37 1011.33 1011.25 1011.12 1010.94 1010.68 1010.38 1010.03 1009.65 1009.26 1008.88 1008.51 1008.16 1007.85 1007.57 1007.34 1007.17 1007.05
1013.98 1013.98 1013.96 1013.93 1013.86 1013.75 1013.62 1013.49 1013.36 1013.25 1013.16 1013.10 1013.05 1013.01 1012.96 1012.88 1012.78 1012.65 1012.51 1012.37 1012.23 1012.12 1012.04 1011.97 1011.92 1011.87 1011.80 1011.68 1011.52 1011.30 1011.02 1010.70 1010.34 1009.95 1009.55 1009.16 1008.78 1008.42 1008.08 1007.79 1007.53 1007.32 1007.15
1013.88 1013.89 1013.88 1013.84 1013.78 1013.69 1013.58 1013.46 1013.35 1013.26 1013.20 1013.16 1013.13 1013.12 1013.09 1013.04 1012.98 1012.89 1012.79 1012.68 1012.57 1012.47 1012.39 1012.32 1012.25 1012.16 1012.06 1011.91 1011.72 1011.48 1011.18 1010.85 1010.49 1010.10 1009.71 1009.33 1008.96 1008.60 1008.28 1007.98 1007.71 1007.47 1007.26
1013.78 1013.79 1013.78 1013.74 1013.66 1013.56 1013.44 1013.32 1013.21 1013.12 1013.06 1013.02 1013.01 1013.01 1013.00 1012.98 1012.93 1012.88 1012.80 1012.71 1012.62 1012.54 1012.46 1012.37 1012.29 1012.19 1012.07 1011.91 1011.71 1011.46 1011.18 1010.86 1010.52 1010.16 1009.80 1009.44 1009.09 1008.76 1008.44 1008.16 1007.88 1007.62 1007.38
1013.68 1013.69 1013.66 1013.59 1013.48 1013.34 1013.18 1013.03 1012.89 1012.78 1012.70 1012.65 1012.63 1012.62 1012.62 1012.62 1012.59 1012.55 1012.49 1012.43 1012.36 1012.28 1012.20 1012.13 1012.05 1011.96 1011.84 1011.70 1011.52 1011.31 1011.07 1010.79 1010.49 1010.18 1009.85 1009.53 1009.21 1008.90 1008.61 1008.32 1008.05 1007.79 1007.52
1013.58 1013.57 1013.50 1013.38 1013.21 1013.01 1012.79 1012.58 1012.38 1012.23 1012.11 1012.04 1012.00 1011.98 1011.98 1011.98 1011.97 1011.94 1011.91 1011.86 1011.81 1011.75 1011.70 1011.65 1011.59 1011.53 1011.46 1011.36 1011.24 1011.08 1010.90 1010.68 1010.44 1010.18 1009.90 1009.61 1009.32 1009.03 1008.76 1008.48 1008.21 1007.94 1007.66
1013.45 1013.40 1013.28 1013.10 1012.86 1012.58 1012.29 1012.00 1011.75 1011.54 1011.38 1011.26 1011.20 1011.17 1011.16 1011.17 1011.17 1011.16 1011.15 1011.13 1011.11 1011.08 1011.06 1011.04 1011.03 1011.02 1011.00 1010.96 1010.90 1010.82 1010.70 1010.55 1010.37 1010.15 1009.91 1009.65 1009.38 1009.11 1008.84 1008.56 1008.30 1008.03 1007.76
1013.26 1013.16 1012.98 1012.73 1012.42 1012.08 1011.72 1011.38 1011.06 1010.80 1010.60 1010.46 1010.37 1010.33 1010.32 1010.34 1010.36 1010.37 1010.39 1010.40 1010.40 1010.41 1010.42 1010.44 1010.47 1010.50 1010.53 1010.55 1010.55 1010.52 1010.46 1010.36 1010.22 1010.03 1009.81 1009.57 1009.31 1009.04 1008.77 1008.51 1008.26 1008.01 1007.76
1012.97 1012.82 1012.59 1012.29 1011.93 1011.54 1011.14 1010.75 1010.40 1010.11 1009.88 1009.72 1009.63 1009.59 1009.60 1009.62 1009.66 1009.70 1009.74 1009.76 1009.80 1009.83 1009.86 1009.90 1009.95 1010.01 1010.06 1010.11 1010.14 1010.14 1010.10 1010.02 1009.90 1009.72 1009.51 1009.27 1009.01 1008.75 1008.49 1008.25 1008.03 1007.82 1007.62
1012.57 1012.38 1012.11 1011.78 1011.40 1010.99 1010.57 1010.18 1009.82 1009.53 1009.30 1009.15 1009.07 1009.04 1009.06 1009.10 1009.16 1009.22 1009.26 1009.31 1009.34 1009.37 1009.40 1009.44 1009.48 1009.52 1009.56 1009.60 1009.62 1009.60 1009.56 1009.46 1009.33 1009.15 1008.93 1008.68 1008.43 1008.18 1007.95 1007.74 1007.57 1007.43 1007.31
1012.04 1011.82 1011.54 1011.21 1010.84 1010.44 1010.04 1009.68 1009.35 1009.08 1008.89 1008.76 1008.70 1008.69 1008.72 1008.78 1008.84 1008.91 1008.96 1008.99 1009.01 1009.02 1009.01 1009.00 1008.99 1008.98 1008.97 1008.95 1008.92 1008.86 1008.77 1008.64 1008.48 1008.28 1008.05 1007.81 1007.57 1007.35 1007.16 1007.01 1006.90 1006.84 1006.81
1011.41 1011.17 1010.90 1010.58 1010.24 1009.90 1009.56 1009.24 1008.96 1008.74 1008.59 1008.50 1008.46 1008.48 1008.53 1008.59 1008.65 1008.71 1008.74 1008.75 1008.72 1008.68 1008.61 1008.54 1008.45 1008.36 1008.26 1008.15 1008.04 1007.91 1007.77 1007.60 1007.40 1007.19 1006.96 1006.74 1006.53 1006.35 1006.21 1006.13 1006.10 1006.12 1006.18
1010.72 1010.48 1010.22 1009.94 1009.65 1009.36 1009.08 1008.83 1008.62 1008.46 1008.34 1008.29 1008.28 1008.31 1008.36 1008.42 1008.48 1008.51 1008.51 1008.48 1008.40 1008.30 1008.16 1008.00 1007.82 1007.63 1007.44 1007.25 1007.05 1006.86 1006.66 1006.45 1006.24 1006.02 1005.82 1005.62 1005.46 1005.34 1005.27 1005.25 1005.29 1005.38 1005.51
1010.04 1009.80 1009.55 1009.31 1009.07 1008.84 1008.63 1008.44 1008.28 1008.17 1008.09 1008.06 1008.06 1008.09 1008.14 1008.18 1008.21 1008.22 1008.19 1008.12 1007.99 1007.83 1007.63 1007.40 1007.14 1006.88 1006.62 1006.36 1006.10 1005.86 1005.63 1005.41 1005.20 1005.02 1004.85 1004.70 1004.60 1004.52 1004.50 1004.54 1004.61 1004.73 1004.88
1009.44 1009.18 1008.95 1008.74 1008.54 1008.35 1008.19 1008.04 1007.93 1007.84 1007.78 1007.76 1007.76 1007.77 1007.80 1007.83 1007.84 1007.82 1007.76 1007.66 1007.51 1007.32 1007.08 1006.82 1006.53 1006.23 1005.93 1005.64 1005.37 1005.12 1004.90 1004.69 1004.52 1004.37 1004.25 1004.16 1004.09 1004.06 1004.06 1004.10 1004.18 1004.27 1004.38
1008.94 1008.68 1008.45 1008.25 1008.08 1007.92 1007.79 1007.67 1007.57 1007.49 1007.43 1007.39 1007.37 1007.37 1007.38 1007.38 1007.37 1007.34 1007.28 1007.18 1007.03 1006.84 1006.62 1006.36 1006.08 1005.80 1005.51 1005.24 1005.00 1004.78 1004.60 1004.44 1004.32 1004.22 1004.14 1004.08 1004.04 1004.02 1004.01 1004.01 1004.02 1004.04 1004.06
1008.59 1008.32 1008.09 1007.89 1007.73 1007.58 1007.46 1007.34 1007.24 1007.15 1007.07 1007.01 1006.96 1006.94 1006.92 1006.91 1006.90 1006.88 1006.83 1006.76 1006.65 1006.51 1006.33 1006.13 1005.91 1005.68 1005.46 1005.25 1005.06 1004.91 1004.78 1004.69 1004.62 1004.56 1004.51 1004.47 1004.42 1004.36 1004.28 1004.20 1004.10 1003.99 1003.87
1008.38 1008.10 1007.87 1007.67 1007.50 1007.36 1007.23 1007.10 1006.98 1006.87 1006.77 1006.68 1006.61 1006.56 1006.53 1006.52 1006.52 1006.52 1006.51 1006.49 1006.44 1006.38 1006.28 1006.16 1006.03 1005.89 1005.75 1005.63 1005.52 1005.44 1005.38 1005.33 1005.30 1005.26 1005.22 1005.15 1005.06 1004.92 1004.76 1004.55 1004.30 1004.04 1003.76
1008.30 1008.02 1007.79 1007.59 1007.42 1007.27 1007.12 1006.98 1006.85 1006.71 1006.58 1006.48 1006.38 1006.32 1006.29 1006.28 1006.30 1006.34 1006.38 1006.42 1006.45 1006.46 1006.46 1006.43 1006.39 1006.34 1006.29 1006.25 1006.21 1006.19 1006.17 1006.16 1006.14 1006.10 1006.03 1005.91 1005.74 1005.51 1005.22 1004.88 1004.48 1004.07 1003.63
1008.33 1008.06 1007.83 1007.63 1007.46 1007.30 1007.15 1007.00 1006.85 1006.69 1006.55 1006.43 1006.33 1006.26 1006.23 1006.24 1006.28 1006.35 1006.44 1006.54 1006.63 1006.71 1006.78 1006.82 1006.86 1006.88 1006.89 1006.90 1006.90 1006.91 1006.91 1006.90 1006.87 1006.80 1006.68 1006.49 1006.23 1005.90 1005.49 1005.02 1004.51 1003.96 1003.40
1008.45 1008.19 1007.98 1007.79 1007.62 1007.46 1007.30 1007.14 1006.98 1006.83 1006.68 1006.55 1006.45 1006.39 1006.37 1006.39 1006.45 1006.54 1006.65 1006.78 1006.90 1007.02 1007.12 1007.20 1007.26 1007.30 1007.34 1007.36 1007.37 1007.37 1007.35 1007.31 1007.24 1007.12 1006.94 1006.68 1006.34 1005.93 1005.44 1004.88 1004.29 1003.67 1003.05
1008.66 1008.42 1008.21 1008.03 1007.87 1007.71 1007.56 1007.40 1007.24 1007.09 1006.94 1006.82 1006.72 1006.67 1006.65 1006.68 1006.74 1006.83 1006.94 1007.06 1007.17 1007.27 1007.36 1007.42 1007.46 1007.48 1007.48 1007.46 1007.44 1007.39 1007.34 1007.25 1007.12 1006.95 1006.72 1006.41 1006.03 1005.57 1005.04 1004.46 1003.84 1003.20 1002.58
1008.95 1008.73 1008.54 1008.36 1008.20 1008.05 1007.89 1007.74 1007.59 1007.44 1007.30 1007.19 1007.10 1007.04 1007.02 1007.03 1007.07 1007.14 1007.21 1007.28 1007.34 1007.38 1007.40 1007.40 1007.37 1007.31 1007.24 1007.16 1007.07 1006.96 1006.84 1006.70 1006.53 1006.32 1006.06 1005.73 1005.34 1004.89 1004.38 1003.82 1003.23 1002.64 1002.06
1009.34 1009.13 1008.94 1008.77 1008.61 1008.45 1008.30 1008.15 1008.00 1007.86 1007.73 1007.62 1007.53 1007.46 1007.42 1007.40 1007.40 1007.41 1007.41 1007.40 1007.38 1007.32 1007.24 1007.13 1007.00 1006.84 1006.67 1006.50 1006.32 1006.15 1005.97 1005.78 1005.58 1005.36 1005.09 1004.78 1004.42 1004.02 1003.56 1003.08 1002.57 1002.06 1001.56
Thickness
5785 5781 5778 5774 5772 5770 5767 5764 5762 5759 5758 5755 5752 5750 5748 5746 5744 5742 5740 5739 5736 5735 5734 5733 5731 5731 5730 5730 5730 5729 5728 5726 5721 5725 5730 5734 5733 5733 5732 5732 5733 5732 5732
5784 5780 5775 5773 5770 5766 5762 5760 5758 5755 5753 5750 5748 5745 5743 5740 5738 5736 5733 5732 5730 5728 5727 5725 5723 5724 5722 5721 5721 5720 5720 5720 5717 5716 5721 5724 5726 5727 5727 5726 5728 5729 5729
5782 5777 5772 5768 5764 5761 5759 5757 5754 5751 5748 5745 5742 5739 5736 5734 5732 5730 5728 5727 5725 5723 5721 5718 5716 5715 5713 5713 5712 5712 5712 5714 5713 5711 5713 5716 5718 5720 5720 5720 5721 5722 5723
5778 5773 5768 5764 5761 5758 5755 5753 5750 5747 5743 5740 5737 5733 5731 5728 5725 5723 5721 5720 5718 5717 5715 5713 5711 5708 5706 5704 5704 5703 5703 5702 5703 5703 5704 5707 5709 5712 5710 5709 5709 5712 5714
5772 5767 5763 5761 5758 5754 5751 5748 5745 5741 5739 5735 5730 5727 5725 5722 5718 5715 5713 5713 5711 5709 5708 5707 5705 5702 5700 5698 5697 5696 5695 5693 5693 5692 5694 5696 5698 5699 5699 5700 5700 5703 5705
5765 5761 5758 5755 5752 5748 5745 5742 5738 5735 5732 5729 5725 5720 5717 5715 5711 5708 5706 5705 5704 5701 5700 5699 5698 5696 5694 5692 5691 5689 5688 5686 5684 5684 5685 5685 5687 5690 5691 5691 5690 5691 5692
5759 5755 5752 5749 5745 5742 5739 5735 5731 5728 5724 5721 5718 5714 5710 5706 5703 5701 5699 5697 5697 5695 5693 5691 5690 5691 5688 5685 5683 5683 5681 5680 5679 5677 5677 5678 5680 5682 5682 5682 5682 5681 5683
5750 5746 5743 5740 5737 5734 5731 5728 5724 5721 5718 5714 5711 5708 5704 5700 5697 5695 5693 5692 5691 5689 5686 5684 5682 5680 5679 5676 5675 5675 5674 5673 5672 5671 5672 5673 5676 5676 5675 5675 5675 5676 5679
5741 5737 5735 5733 5729 5726 5722 5719 5716 5713 5710 5708 5705 5702 5698 5694 5691 5688 5686 5685 5684 5682 5680 5678 5675 5672 5670 5668 5666 5665 5665 5666 5667 5667 5667 5667 5667 5668 5667 5666 5666 5665 5666
5733 5730 5728 5725 5722 5718 5714 5712 5709 5707 5704 5702 5699 5697 5693 5688 5684 5681 5678 5677 5675 5674 5672 5670 5667 5664 5661 5658 5656 5656 5655 5655 5656 5658 5658 5659 5659 5660 5659 5658 5657 5655 5656
5727 5724 5720 5717 5714 5711 5708 5705 5702 5700 5697 5695 5692 5690 5687 5683 5679 5675 5671 5668 5666 5665 5663 5661 5659 5655 5652 5649 5648 5648 5647 5647 5647 5648 5649 5650 5651 5651 5651 5651 5652 5650 5649
5719 5716 5712 5709 5707 5705 5700 5697 5695 5692 5689 5687 5684 5682 5680 5677 5673 5668 5665 5661 5658 5655 5654 5653 5651 5648 5644 5642 5641 5641 5640 5639 5639 5640 5640 5640 5641 5641 5643 5645 5645 5644 5645
5710 5707 5704 5702 5700 5697 5692 5689 5687 5685 5682 5679 5676 5673 5671 5669 5665 5661 5656 5653 5650 5647 5646 5644 5641 5639 5637 5636 5636 5634 5633 5631 5631 5630 5631 5631 5632 5634 5636 5636 5637 5637 5638
5701 5699 5697 5694 5691 5689 5686 5683 5680 5677 5673 5670 5666 5663 5661 5659 5654 5650 5647 5645 5642 5640 5637 5634 5632 5631 5629 5628 5628 5627 5626 5625 5623 5622 5622 5624 5625 5625 5626 5627 5627 5627 5626
5693 5691 5690 5687 5685 5681 5677 5674 5672 5668 5665 5661 5658 5655 5651 5648 5643 5639 5636 5636 5633 5630 5626 5625 5625 5624 5623 5622 5622 5621 5620 5618 5615 5615 5615 5615 5615 5616 5616 5618 5619 5619 5618
5685 5684 5683 5681 5678 5675 5670 5667 5664 5661 5658 5655 5651 5647 5644 5639 5636 5633 5629 5627 5624 5620 5617 5618 5618 5617 5615 5614 5613 5612 5611 5609 5608 5608 5608 5607 5606 5606 5607 5609 5610 5610 5609
5678 5678 5677 5675 5672 5669 5666 5661 5656 5653 5649 5646 5643 5639 5635 5632 5629 5626 5623 5620 5617 5614 5612 5612 5611 5610 5608 5607 5605 5604 5604 5603 5602 5601 5601 5600 5600 5599 5599 5599 5600 5600 5601
5674 5672 5670 5667 5665 5663 5659 5656 5653 5649 5644 5642 5637 5633 5629 5626 5623 5619 5615 5611 5613 5612 5609 5607 5605 5603 5602 5600 5599 5598 5597 5597 5595 5594 5594 5593 5593 5592 5591 5591 5592 5592 5592
5668 5666 5664 5662 5659 5657 5654 5651 5648 5644 5641 5637 5633 5628 5624 5620 5616 5612 5608 5606 5607 5605 5603 5601 5599 5597 5596 5594 5593 5591 5591 5590 5589 5587 5586 5586 5585 5585 5584 5585 5585 5584 5584
5660 5658 5656 5655 5653 5651 5648 5644 5641 5638 5634 5631 5627 5623 5619 5616 5612 5609 5605 5603 5601 5599 5597 5594 5593 5591 5589 5588 5587 5585 5584 5582 5581 5580 5579 5579 5578 5577 5578 5578 5578 5578 5578
5656 5654 5649 5648 5646 5643 5640 5637 5635 5631 5628 5625 5622 5618 5612 5611 5608 5605 5602 5599 5596 5593 5591 5589 5587 5585 5582 5581 5580 5578 5577 5576 5574 5573 5573 5572 5572 5571 5571 5571 5572 5572 5572
5652 5650 5646 5643 5641 5637 5634 5632 5629 5626 5623 5619 5616 5612 5606 5605 5603 5600 5597 5594 5592 5589 5587 5584 5581 5579 5576 5575 5573 5571 5569 5567 5566 5565 5565 5565 5565 5565 5566 5566 5567 5566 5566
5647 5645 5642 5638 5635 5631 5628 5626 5623 5621 5618 5615 5611 5607 5603 5600 5598 5595 5592 5589 5587 5584 5581 5578 5575 5573 5571 5569 5566 5564 5561 5560 5558 5558 5558 5558 5558 5559 5559 5560 5560 5560 5560
5643 5641 5637 5634 5630 5628 5624 5622 5619 5617 5614 5610 5607 5603 5599 5596 5593 5590 5587 5584 5582 5578 5576 5573 5570 5567 5565 5563 5561 5558 5556 5553 5552 5552 5551 5551 5551 5552 5553 5553 5554 5554 5554
5638 5636 5632 5629 5625 5622 5619 5617 5614 5611 5609 5605 5602 5598 5594 5591 5587 5585 5582 5579 5577 5574 5572 5569 5566 5563 5560 5558 5555 5552 5550 5548 5546 5545 5545 5545 5546 5546 5547 5547 5548 5548 5548
5632 5630 5627 5624 5620 5617 5614 5611 5608 5605 5602 5599 5596 5592 5588 5586 5583 5580 5577 5574 5571 5570 5568 5566 5562 5558 5555 5552 5549 5546 5544 5543 5541 5540 5539 5540 5540 5541 5541 5541 5542 5542 5542